Location: Le Hiès Ruisseau
(43.3000°N, 0.4500°W)
Time: 07:16:28
(UTC+00:00)

ATLAS CENTAUR R/B - Pass Details

Date: 28 January 2023
Orbit: 450 x 653 km, 64.7° (Epoch: 19 March)

Event Time Altitude Azimuth Distance (km) Brightness Sun altitude
Rises 19:10:05 0° 233° (SW) 2,983 6.0 -22.2°
Reaches altitude 10° 19:12:32 10° 241° (WSW) 2,068 5.1 -22.7°
Maximum altitude 19:16:58 40° 311° (NW) 962 2.8 -23.5°
Enters shadow 19:19:06 25° 3° (N) 1,293 3.1 -23.9°
